Location: Pedholt
(56.0260°N, 10.2097°E)
Time: 06:29:48
(UTC+00:00)

Meteor 1-13 Rocket - Pass Details

Date: 14 July 2020
Orbit: 830 x 913 km, 81.3° (Epoch: 14 August)

Event Time Altitude Azimuth Distance (km) Brightness Sun altitude
Rises 01:02:41 0° 345° (NNW) 3,515 8.3 -9.6°
Reaches altitude 10° 01:05:10 10° 346° (NNW) 2,559 7.6 -9.5°
Maximum altitude 01:11:01 85° 75° (ENE) 881 4.4 -9.2°
Drops below altitude 10° 01:16:41 10° 165° (SSE) 2,484 6.2 -8.8°
Enters shadow 01:18:34 - 166° (SSE) 3,213 6.8 -8.7°
